STARLINK-11611, 63138

Orbit data source: Space-Track

STARLINK-11611, 63138 is a payload satellite owned by SpaceX/Seattle (US) in LEO that was launched on Mon, 03 Mar 2025 UTC via an FALCON 9 launch vehicle from the Air Force Eastern Test Range (AFETR). Payload-class satellites include a variety of spacecraft equipped with specific instruments for various scientific and technological missions. These include communications satellites like Starlink; space stations such as the ISS; scientific satellites like the Hubble; Earth observation satellites from companies like Planet Labs, Umbra, and HawkEye 360; GPS; miniature CubeSats for education and research; and military/defense satellites.

Loading next visibility...
Identifier
63138, 2025-043G
Orbit
LEO
Country
Flag of USUS
Related business
Manufacturer
SpaceX/Seattle
Mission
Operational Commercial Communications
Bus & Motor
STARLINK V2MD, Unknown motor
Mass
960 kg wet, ~910 kg dry
Launch date (UTC)
2025-03-03 (2 years ago)
Launch vehicle
FALCON 9
Launch site
Air Force Eastern Test Range (AFETR)
Object type
Payload
Rocket body
Debris
Shape & HBR
Box + 2 Pan, 18.1 m
Radar Cross Section
36.964 m², Large (>1 m²)

Expand to show TLE details & history
Last TLE update: 10 hours ago

TLE from 10 hours ago
0 STARLINK-11611
1 63138U 25043G   26255.87998033  .00225594  00000-0  17001-2 0  9990
2 63138  42.9997 202.2756 0001480 228.6731 131.4009 15.71038178 88914
Epoch: 2026-09-12T21:07Z
TLE epoch observation values (Epoch: 2026-09-12T21:07:10.300Z)
Latitude
-0.00005°
Longitude
-106.40001°
Altitude
356.359 km
Speed
7.697 km/s
True Right ascension
13h 29m 06s
True Declination
0° 00' 00"
Sunlit
Object was in daylight at epoch
Visualization orbit readout
Latitude
Unknown
Longitude
Unknown
Altitude
Unknown
Speed
Unknown
Apparent Right ascension
Unknown
Apparent Declination
Unknown
Sunlit
N/A
Visualization observer readout
Local Sidereal Time
23:50:49
Azimuth
Unknown
Elevation
Unknown
Doppler factor
Unknown
Orbital elements
Apogee altitude
358.907 km
Perigee altitude
356.914 km
Semi-major axis
6,736.047 km
Eccentricity
0.00015
Inclination
42.9997°
RAAN
202.2756°
Arg. of periapsis
228.6731°
True anomaly
131.41362°
Mean anomaly
131.4009°
Eccentric anomaly
131.40726°
Mean motion
3.92587 °/min
Orbital period
91.7 mins
BSTAR
0.0017001
Loading maneuver chart data...
Computing Atmospheric mass density...
Loading historical data...
Loading historical data...
Loading historical data...
Loading historical data...
Loading historical data...
Loading historical data...
Loading historical data...

Documentation

Showing up to 5 results
|